EW1433 Weather Reports


time (UTC)temp
F
wind
direction
speed
knots
gust
knots
rain 1hr
in
rain 24hr
in
rain mn
in
humidity
%
barometer
mb
20260503193902 64 172 0.0 5.2 0.00 0.00 0.00 55 1012.7
20260503193405 64 330 0.9 5.2 0.00 0.00 0.00 55 1012.7
20260503192905 64 278 0.0 0.0 0.00 0.00 0.00 55 1012.7
20260503192405 64 327 0.0 0.0 0.00 0.00 0.00 55 1012.7
20260503191905 64 319 0.0 0.0 0.00 0.00 0.00 57 1012.8
20260503191405 64 188 0.0 0.0 0.00 0.00 0.00 55 1012.8
20260503190903 64 200 0.0 0.0 0.00 0.00 0.00 55 1012.8
20260503190404 0 289 0.0 0.0 0.00 0.00 0.00 1012.8
20260503185903 0 182 0.0 0.0 0.00 0.00 0.00 1012.8
20260503185728 65 223 0.0 0.9 0.00 0.00 0.00 54 1012.8
20260503185427 65 179 0.0 0.0 0.00 0.00 0.00 54 1012.8
20260503184402 65 179 0.0 0.9 0.00 0.00 0.00 52 1012.8
20260503183905 65 171 0.0 0.9 0.00 0.00 0.00 53 1012.7
20260503183405 65 196 0.0 0.9 0.00 0.00 0.00 53 1012.8
20260503182905 64 0.0 0.0 0.00 0.00 0.00 59 1012.8
20260503182401 64 0.0 0.0 0.00 0.00 0.00 59 1012.9
20260503181901 63 90 0.0 0.0 0.00 0.00 0.00 60 1012.9
20260503181406 61 90 0.0 2.6 0.00 0.00 0.00 62 1012.9
20260503180904 60 317 0.0 2.6 0.00 0.00 0.00 63 1012.9
20260503180656 60 355 0.0 0.0 0.00 0.00 0.00 63 1012.9
20260503175905 60 299 0.0 0.0 0.00 0.00 0.00 65 1013.0
20260503175406 60 35 0.0 0.0 0.00 0.00 0.00 65 1012.9
20260503174905 60 35 0.0 0.0 0.00 0.00 0.00 64 1013.0
20260503174405 60 324 0.0 0.0 0.00 0.00 0.00 63 1012.9
20260503173906 60 240 0.0 0.0 0.00 0.00 0.00 72 1013.0
20260503173352 59 240 0.0 0.0 0.00 0.00 0.00 72 1012.9
20260503172851 57 200 0.0 0.0 0.00 0.00 0.00 73 1012.9
20260503172351 57 200 0.0 0.0 0.00 0.00 0.00 73 1012.9
20260503171851 57 351 0.0 0.9 0.00 0.00 0.00 74 1012.9
20260503171351 0 351 0.0 0.9 0.00 0.00 0.00 1012.9
20260503170837 60 331 0.0 0.0 0.00 0.00 0.00 71 1012.9
20260503170335 60 292 0.0 0.0 0.00 0.00 0.00 71 1012.9
20260503160105 58 193 0.0 0.0 0.00 0.00 0.00 71 1012.8
20260503150802 57 192 0.0 0.0 0.00 0.00 0.00 74 1012.4
20260503150305 57 0.0 0.0 0.00 0.00 0.00 74 1012.3
20260503140240 55 137 0.0 0.0 0.00 0.00 0.00 77 1011.7
20260503130739 55 137 0.0 0.0 0.00 0.00 0.00 76 1011.1
20260503130238 55 137 0.0 0.0 0.00 0.00 0.00 76 1011.0
20260503110709 56 298 0.0 0.0 0.00 0.00 0.00 73 1011.0
20260503110208 56 298 0.0 0.0 0.00 0.00 0.00 73 1011.0
20260503090445 56 306 0.0 0.0 0.00 0.00 0.00 73 1011.1
20260503081447 0 306 0.0 0.0 0.00 0.00 0.00 1011.5
20260503080711 56 306 0.0 0.0 0.00 0.00 0.00 72 1011.6
20260503080212 56 306 0.0 0.0 0.00 0.00 0.00 72 1011.7
20260503072702 57 51 0.0 0.0 0.00 0.00 0.00 72 1011.8
20260503072202 57 51 0.0 0.0 0.00 0.00 0.00 72 1011.9
20260503071702 57 51 0.0 0.0 0.00 0.00 0.00 71 1011.9
20260503071201 57 51 0.0 0.0 0.00 0.00 0.00 71 1011.9
20260503070703 57 51 0.0 0.0 0.00 0.00 0.00 72 1011.9
20260503070202 57 51 0.0 0.0 0.00 0.00 0.00 72 1011.8
20260503060153 57 72 0.0 0.0 0.00 0.00 0.00 71 1012.0
20260503054653 58 58 0.0 0.0 0.00 0.00 0.00 70 1012.0
20260503054155 58 58 0.0 0.0 0.00 0.00 0.00 70 1012.1
20260503053656 0 58 0.0 0.0 0.00 0.00 0.00 1012.1
20260503053157 0 58 0.0 0.0 0.00 0.00 0.00 1012.1
20260503052656 58 0.0 0.0 0.00 0.00 0.00 70 1012.1
20260503052142 58 0.0 0.0 0.00 0.00 0.00 70 1012.2
20260503051642 58 51 0.0 0.0 0.00 0.00 0.00 70 1012.2
20260503051142 58 51 0.0 0.0 0.00 0.00 0.00 70 1012.3
20260503050642 0 51 0.0 0.0 0.00 0.00 0.00 1012.2
20260503050141 58 310 0.0 0.0 0.00 0.00 0.00 70 1012.2
20260503045642 58 310 0.0 0.0 0.00 0.00 0.00 70 1012.1
20260503045141 58 310 0.0 0.0 0.00 0.00 0.00 69 1012.1
20260503044642 58 20 0.0 0.0 0.00 0.00 0.00 69 1012.0
20260503044141 58 20 0.0 0.0 0.00 0.00 0.00 69 1012.0
20260503043640 58 39 0.0 0.0 0.00 0.00 0.00 69 1012.0
20260503043425 58 278 0.0 0.0 0.00 0.00 0.00 69 1011.9
20260503042642 58 278 0.0 0.0 0.00 0.00 0.00 69 1011.9
20260503042141 58 278 0.0 0.0 0.00 0.00 0.00 69 1011.9
20260503041642 58 0.0 0.0 0.00 0.00 0.00 69 1011.9
20260503041142 58 49 0.0 0.0 0.00 0.00 0.00 68 1011.7
20260503040641 58 49 0.0 0.0 0.00 0.00 0.00 68 1011.8
20260503040138 58 49 0.0 0.0 0.00 0.00 0.00 68 1011.6
20260503035925 58 52 0.0 0.0 0.00 0.00 0.00 68 1011.7
20260503035131 58 42 0.0 0.0 0.00 0.00 0.00 68 1011.5
20260503034630 58 264 0.0 0.0 0.00 0.00 0.00 67 1011.5
20260503034131 58 35 0.0 0.0 0.00 0.00 0.00 67 1011.5
20260503033631 59 336 0.0 0.0 0.00 0.00 0.00 67 1011.3
20260503033131 59 0.0 0.0 0.00 0.00 0.00 66 1011.3
20260503032630 59 0.0 0.0 0.00 0.00 0.00 66 1011.3
20260503032130 60 6 0.0 0.0 0.00 0.00 0.00 66 1011.3
20260503031631 0 6 0.0 0.0 0.00 0.00 0.00 1011.1
20260503031130 59 47 0.0 0.0 0.00 0.00 0.00 66 1011.1
20260503030627 59 47 0.0 0.0 0.00 0.00 0.00 66 1011.2
20260503030106 60 6 0.0 0.0 0.00 0.00 0.00 66 1011.1
20260503025605 60 292 0.0 0.0 0.00 0.00 0.00 66 1011.0
20260503025057 60 0.0 0.0 0.00 0.00 0.00 66 1011.0
20260503024557 60 0.0 0.0 0.00 0.00 0.00 66 1011.0
20260503024057 60 307 0.0 0.0 0.00 0.00 0.00 66 1011.0
20260503023600 61 307 0.0 0.0 0.00 0.00 0.00 66 1010.8
20260503023057 61 52 0.0 0.0 0.00 0.00 0.00 66 1010.8
20260503022555 61 55 0.0 0.0 0.00 0.00 0.00 65 1010.8
20260503022056 61 55 0.0 0.0 0.00 0.00 0.00 65 1010.7
20260503021555 62 11 0.0 0.0 0.00 0.00 0.00 65 1010.6
20260503021359 62 32 0.0 0.0 0.00 0.00 0.00 65 1010.7
20260503020555 62 32 0.0 0.0 0.00 0.00 0.00 65 1010.7
20260503020057 62 47 0.0 0.0 0.00 0.00 0.00 65 1010.7
20260503015556 62 45 0.0 0.0 0.00 0.00 0.00 64 1010.7
20260503015359 63 302 0.0 0.0 0.00 0.00 0.00 64 1010.7
20260503014546 63 51 0.0 0.0 0.00 0.00 0.00 64 1010.8
20260503014035 63 41 0.0 0.0 0.00 0.00 0.00 64 1010.7
20260503013918 64 37 0.0 0.0 0.00 0.00 0.00 64 1010.8
20260503013617 65 37 0.0 0.9 0.00 0.00 0.00 62 1010.8
20260503013601 64 37 0.0 0.0 0.00 0.00 0.00 64 1010.8
20260503012030 65 17 0.0 0.9 0.00 0.00 0.00 62 1010.7
20260503011911 65 337 0.0 0.0 0.00 0.00 0.00 61 1010.7
20260503011555 65 300 0.0 0.9 0.00 0.00 0.00 62 1010.8
20260503010530 65 17 0.0 0.0 0.00 0.00 0.00 62 1010.7
20260503010032 65 3 0.0 0.0 0.00 0.00 0.00 61 1010.8
20260503005807 65 42 0.0 0.0 0.00 0.00 0.00 61 1010.7
20260503005030 66 31 0.0 0.0 0.00 0.00 0.00 61 1010.7
20260503004530 66 288 0.0 0.0 0.00 0.00 0.00 60 1010.7
20260503004029 0 42 0.0 0.0 0.00 0.00 0.00 1010.8
20260503003531 67 0 0.0 0.0 0.00 0.00 0.00 57 1010.8
20260503003030 67 0.0 0.0 0.00 0.00 0.00 57 1010.7
20260503002530 68 0.0 0.0 0.00 0.00 0.00 57 1010.7
20260503002310 69 0.0 0.0 0.00 0.00 0.00 57 1010.7
20260503001530 69 0.0 0.0 0.00 0.00 0.00 58 1010.7
20260503001031 69 0.0 0.0 0.00 0.00 0.00 55 1010.7
20260503000530 70 0.0 0.0 0.00 0.00 0.00 57 1010.7
20260503000034 70 31 0.9 1.7 0.00 0.00 0.00 56 1010.8
20260502235759 70 31 0.9 1.7 0.00 0.00 0.00 56 1010.8
20260502235021 70 324 0.0 0.0 0.00 0.00 0.00 56 1010.7
20260502234520 70 25 0.0 0.0 0.00 0.00 0.00 55 1010.7
20260502234024 71 358 0.0 0.0 0.00 0.00 0.00 54 1010.8
20260502233804 0 310 0.0 0.0 0.00 0.00 0.00 1010.8
20260502233039 70 313 0.0 0.0 0.00 0.00 0.00 55 1010.9
20260502233034 0 310 0.0 0.0 0.00 0.00 0.00 1010.9
20260502232255 70 341 0.0 0.0 0.00 0.00 0.00 55 1010.9
20260502231755 70 354 0.0 0.0 0.00 0.00 0.00 55 1010.9
20260502231005 0 353 0.0 0.0 0.00 0.00 0.00 1011.1
20260502230507 0 23 0.0 0.9 0.00 0.00 0.00 1011.1
20260502230003 71 324 0.0 0.9 0.00 0.00 0.00 55 1011.2
20260502225504 71 0 0.0 0.9 0.00 0.00 0.00 55 1011.2
20260502224930 71 340 0.0 0.9 0.00 0.00 0.00 56 1011.3
20260502224434 71 37 0.0 0.0 0.00 0.00 0.00 56 1011.4
20260502224206 71 37 0.0 0.0 0.00 0.00 0.00 56 1011.4
20260502223432 71 257 0.0 0.0 0.00 0.00 0.00 55 1011.4
20260502222930 72 345 0.0 0.0 0.00 0.00 0.00 55 1011.5
20260502222429 72 345 0.0 0.9 0.00 0.00 0.00 51 1011.5
20260502221929 72 313 0.0 0.9 0.00 0.00 0.00 51 1011.5
20260502221429 72 329 0.0 0.0 0.00 0.00 0.00 51 1011.7
20260502220930 72 340 0.0 0.0 0.00 0.00 0.00 55 1011.8
20260502220656 72 0.0 0.0 0.00 0.00 0.00 55 1011.9
20260502220212 72 34 0.0 0.0 0.00 0.00 0.00 55 1011.9
20260502215430 72 34 0.0 0.0 0.00 0.00 0.00 56 1012.0
20260502214930 71 289 0.0 0.0 0.00 0.00 0.00 56 1012.0
20260502214721 71 314 0.0 0.0 0.00 0.00 0.00 56 1012.1
20260502214206 71 0.0 0.0 0.00 0.00 0.00 56 1012.1
20260502213430 71 293 0.0 0.0 0.00 0.00 0.00 53 1012.2
20260502212931 71 293 0.0 0.0 0.00 0.00 0.00 54 1012.2
20260502212430 71 307 0.0 0.0 0.00 0.00 0.00 54 1012.0
20260502211931 72 351 0.0 0.0 0.00 0.00 0.00 53 1012.1
20260502211707 71 334 0.0 0.9 0.00 0.00 0.00 55 1012.3
20260502211626 72 326 0.0 0.0 0.00 0.00 0.00 54 1012.1
20260502211112 71 334 0.0 0.9 0.00 0.00 0.00 56 1012.3
20260502211040 72 0 0.0 0.0 0.00 0.00 0.00 54 1012.1
20260502205431 70 178 0.0 0.0 0.00 0.00 0.00 55 1012.4
20260502204930 70 155 0.0 0.0 0.00 0.00 0.00 55 1012.5
20260502204429 69 116 0.0 0.0 0.00 0.00 0.00 59 1012.6
20260502203930 69 155 0.0 0.0 0.00 0.00 0.00 59 1012.6
20260502203407 68 197 0.0 0.0 0.00 0.00 0.00 56 1012.7
20260502202903 69 197 0.0 0.0 0.00 0.00 0.00 58 1012.8
20260502202403 69 202 0.0 0.0 0.00 0.00 0.00 57 1012.8
20260502201901 69 162 0.0 0.0 0.00 0.00 0.00 57 1012.9
20260502201403 69 180 0.0 0.0 0.00 0.00 0.00 56 1013.1
20260502200902 69 144 0.0 0.0 0.00 0.00 0.00 56 1013.1
20260502200401 69 224 0.0 0.0 0.00 0.00 0.00 57 1013.1
20260502195902 69 166 0.0 0.0 0.00 0.00 0.00 57 1013.2
20260502195403 69 166 0.0 0.0 0.00 0.00 0.00 59 1013.2
20260502194901 68 209 0.0 0.0 0.00 0.00 0.00 59 1013.3
20260502194702 68 199 0.0 0.0 0.00 0.00 0.00 60 1013.3